{"data":{"norad_id":60487,"intl_designator":"2024-149V","name":"FLOCK 4BE-25","alt_names":[],"object_type":"PAYLOAD","status":"ACTIVE","operator":null,"country":"US","launch_date":"2024-08-16","launch_site_code":"AFWTR","launch_vehicle":null,"mission":null,"orbit_class":"UNKNOWN","rcs_meters":null,"size_class":null,"mass_kg":null,"dimensions":null,"purposes":["earth_obs"],"wikipedia_slug":null,"has_3d_model":false,"image_url":null,"decayed_at":null,"tle_current":{"epoch":"2026-09-19T22:52:32.090016Z","epoch_age_seconds":61609,"freshness":"FRESH","line1":"1 60487U 24149V   26262.95314919  .00023433  00000+0  55912-3 0  9993","line2":"2 60487  97.3739 346.8792 0001041 260.4749  99.6381 15.41548821116825","mean_motion":15.41548821,"eccentricity":0.0001041,"inclination_deg":97.3739,"raan_deg":346.8792,"arg_perigee_deg":260.4749,"mean_anomaly_deg":99.6381,"bstar":0.00055912,"rev_number":11682,"period_min":93.412545900809,"perigee_km":440.82766452111,"apogee_km":442.2475207713,"semimajor_km":6819.6745926462,"source":"CELESTRAK","updated_at":"2026-09-20T09:00:34.712098Z"}}}